Regional Weather Roundup
Issued by NWS

Home | Current Version | Previous Version | Text Only | Print | Product List | Glossary Off
Versions: 1 2 3 4 5 6 7 8 9 10 11 12 13 14 15 16 17 18 19 20 21 22 23 24 25 26 27 28 29 30 31 32 33 34 35 36 37 38 39 40 41 42 43 44 45 46 47 48 49 50

734
ASUS45 KBOU 271307
RWRCO

WEATHER ROUNDUP FOR COLORADO
NATIONAL WEATHER SERVICE DENVER/BOULDER CO
700 AM MDT THU JUL 27 2017

NOTE: "FAIR" INDICATES FEW OR NO CLOUDS BELOW 12000 FEET WITH NO
SIGNIFICANT WEATHER AND/OR OBSTRUCTIONS TO VISIBILITY.

COZ001>005-013-030-031-271400-
...NORTHWEST COLORADO...

CITY           SKY/WX    TMP DP  RH WIND       PRES   REMARKS
CRAIG          FAIR      56  54  93 W3        30.31R
HAYDEN         FAIR      57  50  77 E8        30.33R
MEEKER         FAIR      57  53  86 E7        30.32R
RABBIT EARS PA FAIR      52  46  82 SW5       30.59S
STEAMBOAT SPGS FAIR      52  51  97 CALM      30.35R
WALDEN         CLOUDY    50  48  93 CALM      30.44R VSB<1/4
$$

COZ006>008-011-271400-
...WEST CENTRAL VALLEYS...

CITY           SKY/WX    TMP DP  RH WIND       PRES   REMARKS
GRAND JUNCTION FAIR      67  60  78 SE7       30.18R
MONTROSE       FAIR      64  56  75 SE8       30.28R
EAGLE          CLEAR     55  52  88 MISG      30.37R
RIFLE          FAIR      62  59  90 CALM      30.26R
DELTA          FAIR      67  56  65 CALM      30.23R
NUCLA          FAIR      61  54  77 SE7       30.30S
$$

COZ017>023-064>068-271400-
...SOUTHWEST COLORADO...

CITY           SKY/WX    TMP DP  RH WIND       PRES   REMARKS
DURANGO        FAIR      58  53  84 CALM      30.30R
CORTEZ         FAIR      57  55  93 E5        30.25R
PAGOSA SPRINGS FAIR      55  51  86 CALM      30.39S
TELLURIDE      FAIR      53  50  90 SE5       30.51R
WOLF CREEK PAS FAIR      48  45  87 CALM      30.75S
$$

COZ009-010-012-014-032>034-037-058>063-271400-
...CENTRAL COLORADO...

CITY           SKY/WX    TMP DP  RH WIND       PRES   REMARKS
ASPEN          FAIR      53  50  89 SW5       30.40R
BUENA VISTA    CLOUDY    57  52  83 CALM      30.45S
COPPER MTN     FAIR      54  46  76 W3        30.70R
BERTHOUD PASS  FAIR      43  32  65 NW17      30.73S
COTTONWOOD PAS FOG       54  52  94 E9        30.57S VSB<1/4
GUNNISON       FAIR      54  49  83 NW9       30.44R
KREMMLING      CLOUDY    59  55  88 CALM      30.42R FOG
LEADVILLE      CLOUDY    51  48  89 S3        30.52F
MONARCH PASS     N/A     48  45  87 CALM      30.81R
SALIDA         CLOUDY    60  55  84 SW3       30.50S
SUNLIGHT       FAIR      50  46  87 E3        30.64R
WILKERSON PASS FAIR      48  45  87 N5        30.68S
$$

COZ069>075-271400-
...SAN LUIS VALLEY/SANGRE DE CRISTO MOUNTAINS...

CITY           SKY/WX    TMP DP  RH WIND       PRES   REMARKS
ALAMOSA        FAIR      55  54  96 W5        30.40R
DEL NORTE      FAIR      56  48  76 W8        30.44R
LA VETA PASS   NOT AVBL
SAGUACHE         N/A    N/A N/A N/A MISG        N/A
$$

COZ035-036-038>040-271400-
...NORTHERN COLORADO FRONT RANGE...

CITY           SKY/WX    TMP DP  RH WIND       PRES   REMARKS
DENVER INTL AP FAIR      63  60  90 SE14      30.23R
DMNS CITY PARK   N/A     66  61  84 E10       30.24R
AURORA         MOSUNNY   62  61  98 SE16G23   30.25S
FRONT RANGE AP FAIR      64  63  94 SE12G18   30.26R
ERIE MUNI ARPT FAIR      61  60  97 CALM      30.24R FOG
BOULDER MUN AP FAIR      61  61 100 CALM      30.25R
CENTENNIAL     FAIR      62  58  86 SE14      30.25F
BROOMFIELD     FAIR      61  59  94 NW5       30.26R
FORT COLLINS   FOG       63  63 100 SE3       30.25R VSB 1/4
LONGMONT       PTSUNNY   65  62  88 N5        30.25R FOG
$$

COZ041-046-047-076>085-087-088-271400-
...PIKES PEAK/PALMER DIVIDE AND SOUTHERN FOOTHILLS...

CITY           SKY/WX    TMP DP  RH WIND       PRES   REMARKS
COLO. SPRINGS  FAIR      62  60  93 E9        30.32R
A. F. ACADEMY  FAIR      57  57 100 W3        30.33R
SCHRIEVER AFB  FOG       59  59  97 E6        30.33S VSB 1/8
CHEYENNE MTN   PTSUNNY   58  56  92 NW6       30.31R
ELLICOTT       FAIR     N/A N/A N/A E6        30.31S
FALCON         LGT RAIN  58  58  99 SE7       30.36S VSB<1/4
FORT CARSON    FAIR      60  60  97 E6        30.29R
LIMON          PTSUNNY   62  62 100 S3        30.28S
MONUMENT HILL  FAIR      55  54  94 SE9       30.37R
CANON CITY     SUNNY     64  61  88 W8        30.25F
WALSENBURG     FAIR      63  57  82 SW5       30.31F
TRINIDAD       FAIR      64  58  80 CALM      30.30S
$$

COZ042>045-048>051-090-091-271400-
...NORTHEAST COLORADO...

CITY           SKY/WX    TMP DP  RH WIND       PRES   REMARKS
GREELEY ARPT   FAIR      63  62  97 CALM      30.23R FOG
AKRON          CLOUDY    66  63  90 SE10      30.23F
BURLINGTON     CLOUDY    68  66  93 NE5       30.22R
WRAY           NOT AVBL
YUMA           CLOUDY    64  59  82 E6        30.22S
STERLING       CLOUDY    68  64  88 SE6       30.19S
HOLYOKE        DRIZZLE   70  64  83 E5        30.21S
FORT MORGAN    CLOUDY    65  64  94 E7        30.23R
$$

COZ086-089-092>099-271400-
...SOUTHEAST COLORADO...

CITY           SKY/WX    TMP DP  RH WIND       PRES   REMARKS
PUEBLO         FAIR      64  62  93 E5        30.24R
LA JUNTA       CLOUDY    67  64  90 NW7       30.22R
LAMAR          LGT RAIN  71  68  90 CALM      30.16R
SPRINGFIELD      N/A     67  65  93 CALM      30.22S
$$




USA.gov is the U.S. government's official web portal to all federal, state and local government web resources and services.